Location: Nairn
(57.5833°N, 3.8667°W)
Time: 05:58:35
(UTC+00:00)

Explorer 7 - All Passes

Search period start: 27 November 2020 00:00
Search period end: 07 December 2020 00:00
Orbit: 484 x 678 km, 50.3° (Epoch: 26 November)

Date Brightness Start Highest point End Pass type
(mag) Time Alt. Az. Time Alt. Az. Time Alt. Az.
27 Nov - 02:49:35 10° S 02:51:44 13° SSE 02:53:49 10° ESE visible
27 Nov - 04:27:41 10° SW 04:31:20 26° SSE 04:34:48 10° ESE visible
27 Nov - 06:07:30 10° WSW 06:11:10 29° S 06:14:39 10° SE visible
27 Nov - 07:48:08 10° WSW 07:50:49 17° SSW 07:53:25 10° SSE daylight
28 Nov - 02:53:10 10° SSW 02:56:05 17° SSE 02:58:53 10° ESE visible
28 Nov - 04:32:01 10° SW 04:35:48 29° S 04:39:23 10° ESE visible
28 Nov - 06:12:03 10° WSW 06:15:37 27° SSW 06:19:02 10° SE visible
28 Nov - 07:53:08 10° WSW 07:55:10 13° SSW 07:57:07 10° S daylight
29 Nov - 02:57:06 10° SSW 03:00:29 21° SSE 03:03:42 10° ESE visible
29 Nov - 04:36:25 10° WSW 04:40:16 31° S 04:43:54 10° ESE visible
29 Nov - 06:16:38 10° WSW 06:20:03 24° SSW 06:23:19 10° SE visible
30 Nov - 01:23:55 10° SSE 01:25:22 11° SE 01:26:48 10° SE night (unlit)
30 Nov - 03:01:14 10° SW 03:04:54 25° SSE 03:08:23 10° ESE visible
30 Nov - 04:40:52 10° WSW 04:44:44 31° S 04:48:23 10° ESE visible
30 Nov - 06:21:19 10° WSW 06:24:27 20° SSW 06:27:28 10° SSE visible
01 Dec - 01:27:03 10° S 01:29:41 15° SSE 01:32:13 10° ESE night (unlit)
01 Dec - 03:05:29 10° SW 03:09:20 28° SSE 03:12:59 10° ESE visible
01 Dec - 04:45:23 10° WSW 04:49:11 30° S 04:52:47 10° SE visible
01 Dec - 06:26:06 10° WSW 06:28:49 17° SSW 06:31:25 10° SSE visible
02 Dec - 01:30:48 10° SSW 01:34:02 19° SSE 01:37:09 10° ESE night (unlit)
02 Dec - 03:09:49 10° SW 03:13:47 31° S 03:17:32 10° ESE visible
02 Dec - 04:49:55 10° WSW 04:53:37 27° SSW 04:57:09 10° SE visible
02 Dec - 06:31:08 10° WSW 06:33:08 13° SW 06:35:04 10° S visible
03 Dec - 01:34:47 10° SSW 01:38:25 23° SSE 01:41:54 10° ESE night (unlit)
03 Dec - 03:14:14 10° WSW 03:18:15 32° S 03:22:02 10° ESE visible
03 Dec - 04:54:31 10° WSW 04:58:02 24° SSW 05:01:23 10° SE visible
04 Dec - 00:01:08 10° S 00:03:15 13° SE 00:05:21 10° ESE night (unlit)
04 Dec - 01:38:57 10° SW 01:42:50 27° SSE 01:46:32 10° ESE night (unlit)
04 Dec - 03:18:41 10° WSW 03:22:41 32° S 03:26:29 10° ESE visible
04 Dec - 04:59:12 10° WSW 05:02:25 20° SSW 05:05:29 10° SSE visible
05 Dec - 00:04:35 10° S 00:07:34 17° SSE 00:10:29 10° ESE night (unlit)
05 Dec - 01:43:14 10° SW 01:47:15 30° S 01:51:07 10° ESE night (unlit)
05 Dec - 03:23:12 10° WSW 03:27:08 30° S 03:30:53 10° SE visible
05 Dec - 05:04:00 10° WSW 05:06:45 17° SSW 05:09:24 10° S visible
06 Dec - 00:08:24 10° SSW 00:11:55 21° SSE 00:15:18 10° ESE night (unlit)
06 Dec - 01:47:35 10° WSW 01:51:42 32° S 01:55:38 10° ESE night (unlit)
06 Dec - 03:27:44 10° WSW 03:31:34 27° SSW 03:35:11 10° SE night (unlit)
06 Dec - 05:09:06 10° WSW 05:11:03 13° SW 05:12:57 10° S visible
06 Dec - 22:35:39 10° SSE 22:36:49 11° SE 22:38:00 10° SE night (unlit)
